Location: Auckland
(36.8670°S, 174.7670°E)
Time: 04:12:26
(UTC+12:00)

Tiros 1 despin weight - Pass Details

Date: 19 July 2019
Orbit: 594 x 642 km, 48.2° (Epoch: 20 August)

Event Time Altitude Azimuth Distance (km) Brightness Sun altitude
Rises 03:06:01 0° 259° (W) 2,852 - -52.2°
Reaches altitude 10° 03:08:44 10° 244° (WSW) 1,956 - -51.6°
Maximum altitude 03:12:16 22° 192° (SSW) 1,340 - -50.9°
Drops below altitude 10° 03:15:50 10° 140° (SE) 1,979 - -50.2°
Sets 03:18:36 0° 124° (SE) 2,894 - -49.7°
